Regional Weather Roundup
Issued by NWS

Home | Current Version | Previous Version | Text Only | Print | Product List | Glossary Off
Versions: 1 2 3 4 5 6 7 8 9 10 11 12 13 14 15 16 17 18 19 20 21 22 23 24 25 26 27 28 29 30 31 32 33 34 35 36 37 38 39 40 41 42 43 44 45 46 47 48 49 50

000
ASUS43 KLSX 221457
RWRMO

WEATHER SUMMARY FOR MISSOURI
NATIONAL WEATHER SERVICE SPRINGFIELD MO
900 AM CST THU FEB 22 2018

NOTE: "FAIR" INDICATES FEW OR NO CLOUDS BELOW 12,000 FEET WITH NO
       SIGNIFICANT WEATHER AND/OR OBSTRUCTIONS TO VISIBILITY.
       CURRENT SKY AND/OR WEATHER CONDITIONS ARE NOT AVAILABLE FOR
       CHILLICOTHE AND FARMINGTON.

MOZ001>031-035>038-043-044-053-054-221600-
...NORTHERN AND WESTERN MISSOURI...

CITY           SKY/WX    TMP DP  RH WIND       PRES   REMARKS
KANSAS CTY INT FRZ DRZL  28  26  92 E10       30.36F FOG     WCI  19
LEE`S SUMMIT   CLOUDY    28  28 100 E7        30.37F FOG     WCI  21
ST JOSEPH      CLOUDY    28  28 100 E8        30.40F FOG     WCI  20
CHILLICOTHE      N/A     29  27  92 E8        30.43F WCI  21
KIRKSVILLE     CLOUDY    29  29 100 NE10      30.43F FOG     WCI  20

$$
MOZ066>068-077>081-088>096-101>105-221600-
...SOUTHWEST MISSOURI...

CITY           SKY/WX    TMP DP  RH WIND       PRES   REMARKS
SPRINGFIELD    PTSUNNY   34  32  92 E8        30.33F FOG     WCI  27
JOPLIN         CLOUDY    33  33 100 CALM      30.35R FOG
BRANSON        CLOUDY    32  32 100 E5        30.36S FOG     WCI  27

$$
MOZ032>034-039>042-045>050-055>058-069>072-221600-
...CENTRAL MISSOURI...

CITY           SKY/WX    TMP DP  RH WIND       PRES   REMARKS
COLUMBIA       NOT AVBL
JEFFERSON CITY CLOUDY    33  31  92 E3        30.42S
ROLLA          CLOUDY    32  32 100 NE5       30.39R FOG     WCI  27
SEDALIA        CLOUDY    32  32 100 NE6       30.40S FOG     WCI  26
WARRENSBURG    CLOUDY    30  30 100 NE5       30.38F FOG     WCI  25

$$
MOZ051-052-059>065-221600-
...EAST CENTRAL MISSOURI...

CITY           SKY/WX    TMP DP  RH WIND       PRES   REMARKS
ST LOUIS INTL  LGT RAIN  36  35  96 NE8       30.40S FOG     WCI  30
SPIRIT OF STL  LGT RAIN  36  36 100 NE3       30.40S FOG

$$
MOZ072>076-082>087-097>100-106>115-221600-
...SOUTH CENTRAL AND SOUTHEAST MISSOURI...

CITY           SKY/WX    TMP DP  RH WIND       PRES   REMARKS
CAPE GIRARDEAU CLOUDY    40  38  93 N7        30.38R
FARMINGTON     MIX PCPN  34  34 100 N5        30.39R VSB 1   WCI  30
POPLAR BLUFF   CLOUDY    39  37  92 N7        30.39R
WEST PLAINS    CLOUDY    34  33  96 N5        30.37S FOG     WCI  30

$$



USA.gov is the U.S. government's official web portal to all federal, state and local government web resources and services.